Diamond Lake Weather Center

Moon Phase Calendar



Diamond Lake Water Level
Online Cameras

 


      

Current Conditions in Cassopolis
6/12/2021 1:16:42 PM

87°F
Feels Like 92
Clouds
Humidity
58%
Pressure
29.83"
Wind
1.7 mph (SW)
Dew Point
70°F
UV Index
9/10 (Very High)
Visibility
6 mi

Hourly Forecast

Date & Time Sat, Jun 12
1:00 PM
Sat, Jun 12
2:00 PM
Sat, Jun 12
3:00 PM
Sat, Jun 12
4:00 PM
Sat, Jun 12
5:00 PM
Sat, Jun 12
6:00 PM
Sat, Jun 12
7:00 PM
Sat, Jun 12
8:00 PM
Sat, Jun 12
9:00 PM
Sat, Jun 12
10:00 PM
Sat, Jun 12
11:00 PM
Sun, Jun 13
12:00 AM
Sun, Jun 13
1:00 AM
Sun, Jun 13
2:00 AM
Sun, Jun 13
3:00 AM
Sun, Jun 13
4:00 AM
Sun, Jun 13
5:00 AM
Sun, Jun 13
6:00 AM
Sun, Jun 13
7:00 AM
Sun, Jun 13
8:00 AM
Sun, Jun 13
9:00 AM
Sun, Jun 13
10:00 AM
Sun, Jun 13
11:00 AM
Sun, Jun 13
12:00 PM
Sun, Jun 13
1:00 PM
Sun, Jun 13
2:00 PM
Sun, Jun 13
3:00 PM
Sun, Jun 13
4:00 PM
Sun, Jun 13
5:00 PM
Sun, Jun 13
6:00 PM
Sun, Jun 13
7:00 PM
Sun, Jun 13
8:00 PM
Sun, Jun 13
9:00 PM
Sun, Jun 13
10:00 PM
Sun, Jun 13
11:00 PM
Mon, Jun 14
12:00 AM
Mon, Jun 14
1:00 AM
Mon, Jun 14
2:00 AM
Mon, Jun 14
3:00 AM
Mon, Jun 14
4:00 AM
Mon, Jun 14
5:00 AM
Mon, Jun 14
6:00 AM
Mon, Jun 14
7:00 AM
Mon, Jun 14
8:00 AM
Mon, Jun 14
9:00 AM
Mon, Jun 14
10:00 AM
Mon, Jun 14
11:00 AM
Mon, Jun 14
12:00 PM
Condition
Clouds

Clouds

Clouds

Clouds

Rain

Clouds

Rain

Rain

Clouds

Clouds

Clouds

Clouds

Clouds

Clouds

Clear

Clear

Clear

Clouds

Clouds

Clouds

Clear

Clear

Clear

Clear

Clear

Clear

Clear

Clear

Clear

Clear

Clear

Clear

Clear

Clear

Clear

Clouds

Clouds

Clouds

Clouds

Clouds

Clouds

Clouds

Clouds

Clouds

Clear

Clear

Clear

Clear
Temperature 87°F87°F87°F87°F86°F83°F80°F74°F70°F67°F66°F65°F64°F64°F63°F62°F62°F61°F62°F65°F69°F73°F75°F77°F78°F79°F78°F77°F76°F74°F72°F69°F64°F61°F60°F61°F61°F62°F61°F61°F62°F65°F65°F67°F68°F69°F71°F73°F
Feels Like 92°F91°F91°F91°F90°F87°F80°F75°F71°F67°F66°F65°F65°F64°F64°F63°F62°F61°F62°F66°F70°F73°F75°F77°F78°F78°F78°F77°F75°F73°F71°F68°F63°F60°F59°F60°F60°F61°F60°F60°F61°F64°F65°F67°F68°F69°F71°F73°F
Cloudiness 78%79%64%52%44%33%26%28%55%52%67%53%44%36%1%3%7%11%13%11%0%0%0%0%0%0%0%0%0%0%0%0%0%2%2%19%29%35%81%44%32%48%55%51%7%4%2%2%
Visibility 6 mi6 mi6 mi6 mi6 mi6 mi6 mi6 mi6 mi6 mi6 mi6 mi6 mi6 mi6 mi6 mi6 mi6 mi6 mi6 mi6 mi6 mi6 mi6 mi6 mi6 mi6 mi6 mi6 mi6 mi6 mi6 mi6 mi6 mi6 mi6 mi6 mi6 mi6 mi6 mi6 mi6 mi6 mi6 mi6 mi6 mi6 mi6 mi
Precipitation 0%0%0%10%26%30%58%68%26%21%12%12%12%8%0%0%0%0%0%0%0%0%0%0%0%0%0%0%0%0%0%0%0%0%0%0%0%0%0%0%0%2%0%0%1%0%0%0%
Humidity 58%57%56%54%57%61%71%81%88%91%90%93%95%96%97%97%98%98%96%88%78%67%56%49%46%44%44%44%46%50%56%66%72%70%69%66%65%63%61%62%64%65%72%78%76%72%68%62%
Dew Point 70°F70°F69°F69°F69°F69°F70°F68°F66°F64°F63°F63°F63°F63°F62°F62°F61°F60°F60°F62°F62°F61°F58°F57°F56°F55°F55°F54°F54°F54°F56°F57°F54°F51°F50°F50°F49°F49°F48°F48°F49°F53°F56°F60°F60°F60°F60°F59°F
Pressure 29.83"29.83"29.83"29.8"29.8"29.8"29.8"29.8"29.83"29.85"29.88"29.88"29.88"29.88"29.88"29.88"29.91"29.91"29.91"29.94"29.94"29.97"29.94"29.94"29.94"29.94"29.94"29.94"29.94"29.94"29.94"29.94"29.94"29.94"29.94"29.91"29.91"29.88"29.88"29.88"29.85"29.85"29.85"29.85"29.88"29.88"29.88"29.88"
Wind Speed 1.7 mph2.7 mph5 mph7.1 mph9.8 mph9.3 mph9.9 mph10.1 mph8.4 mph10.2 mph6.1 mph5.2 mph5.8 mph6.7 mph7.4 mph7.8 mph8.7 mph7.9 mph7 mph7.7 mph9.4 mph9.6 mph9.9 mph10.2 mph10.9 mph10.8 mph11.9 mph12.4 mph12.1 mph11.5 mph8.3 mph6.4 mph5.8 mph5.4 mph4.8 mph4.1 mph4.4 mph6.7 mph7.5 mph8.2 mph8.8 mph9 mph8.5 mph10 mph12.9 mph13.6 mph13.4 mph14.2 mph
Wind
Direction
220°
SW
291°
WNW
300°
WNW
301°
WNW
304°
NW
322°
NW
315°
NW
325°
NW
316°
NW
330°
NNW
333°
NNW
324°
NW
324°
NW
326°
NW
329°
NNW
331°
NNW
337°
NNW
341°
NNW
344°
NNW
351°
N
355°
N
353°
N
353°
N
346°
NNW
335°
NNW
328°
NNW
325°
NW
322°
NW
322°
NW
322°
NW
326°
NW
307°
NW
303°
WNW
306°
NW
306°
NW
291°
WNW
268°
W
247°
WSW
234°
SW
226°
SW
236°
SW
246°
WSW
273°
W
282°
WNW
317°
NW
326°
NW
328°
NNW
334°
NNW

Daily Forecast

Date High Low Precip. Humidity
Today
Jun 12

Rain
87 °F
65 °F
68%
58%
Sunday
Jun 13

Clear
79 °F
60 °F
12%
46%
Monday
Jun 14

Clear
73 °F
56 °F
10%
60%
Tuesday
Jun 15

Rain
74 °F
54 °F
62%
48%
Wednesday
Jun 16

Clear
71 °F
51 °F
3%
40%
Thursday
Jun 17

Clouds
76 °F
50 °F
0%
43%
Friday
Jun 18

Rain
64 °F
59 °F
100%
95%
Saturday
Jun 19

Rain
60 °F
49 °F
84%
66%
Sunday
Jun 20

Clear
74 °F
49 °F
0%
47%
Monday
Jun 21

Rain
70 °F
57 °F
100%
65%
Tuesday
Jun 22

Rain
71 °F
55 °F
59%
46%
Wednesday
Jun 23

Clouds
75 °F
52 °F
0%
44%
Thursday
Jun 24

Clouds
79 °F
58 °F
0%
44%
Friday
Jun 25

Clouds
78 °F
62 °F
26%
50%
Saturday
Jun 26

Rain
81 °F
61 °F
100%
51%
Sunday
Jun 27

Rain
78 °F
63 °F
100%
46%

Temperature 8-14 Day Outlook



Precipitation 8-14 Day Outlook




Quick Links
Diamond Lake News
Diamond Lake Photos
Diamond Lake Videos




About Us
Contact Us
Site Map
Search Site
Advertise With Us
   
Diamond.LakesOnline.com
THE DIAMOND LAKE WEBSITE

Copyright 2021, Lakes Online
Privacy    |    Legal